< < Back
Terminal Aerodrome Forecast


Current Version              Previous Versions:   1  2  3  4  5  6  7  8  9  

Terminal Aerodrome Forecast

520
FTUS42 KGSP 222337
TAFAND
TAF
KAND 222337Z 2300/2324 21006KT P6SM VCSH SCT050 BKN250
     FM230300 23003KT P6SM FEW080 SCT250
     FM230700 00000KT 6SM BR SCT250
     FM231400 21006KT P6SM SCT060=

Latest METAR

750
SAUS70 KWBC 231900 RRF
MTRAND
METAR KAND 231856Z AUTO 19013KT 10SM CLR 34/20 A2999 RMK AO2 LTG DSNT
ALQDS SLP142 T03440200


USA.gov is the U.S. government's official web portal to all federal, state and local government web resources and services.